Tracking 31027 objects as of 19-Jul-2025
HD Live streaming from Space Station
objects crossing your sky now

SL-12 DEB

Track SL-12 DEB now!
10-day predictions


NORAD ID: 24833
Int'l Code: 1997-028F
Perigee: 1,214.5 km
Apogee: 3,054.0 km
Inclination: 63.3 °
Period: 130.1 minutes
Semi major axis: 8505 km
RCS: 0.8365 m2 (medium)
Launch date: June 6, 1997
Source: Commonwealth of Independent States (former USSR) (CIS)
Launch site: TYURATAM MISSILE AND SPACE COMPLEX (TTMTR)

Note: This is SATELLITE DEBRIS
Your satellite tracking list
STARLINK-5403
Track 1 satellite(s)




NASA's NSSDC Master Catalog

Two Line Element Set (TLE):
1 24833U 97028F   25199.46887856 -.00000134  00000-0 -97671-3 0  9997
2 24833  63.3225 110.7429 1081429  44.9788 117.6246 11.06810259136079
Source of the keplerian elements: AFSPC